This is the latest recevied weather packets stored in our database for station/object KB1JDX. If no packets are shown the sender has not sent any weather packets the latest 10 day(s).
| Time | Temp. | Humidity | Pressure | Rain* | Wind** | Luminosity | Snow |
|---|---|---|---|---|---|---|---|
| 1788136338 | 22.22° C | 100% | 1017.1 hPa | 0 mm | 0 m/s | - | - |
| 1788136273 | 22.22° C | 100% | 1017.1 hPa | 0 mm | 0 m/s | - | - |
| 1788135138 | 22.22° C | 100% | 1016.9 hPa | 0 mm | 0 m/s | - | - |
| 1788133938 | 22.22° C | 100% | 1016.7 hPa | 0 mm | 0 m/s | - | - |
| 1788132738 | 22.78° C | 14% | 1016.7 hPa | 0 mm | 0 m/s | - | - |
| 1788132673 | 22.78° C | 15% | 1016.7 hPa | 0 mm | 0 m/s | - | - |
| 1788131538 | 22.78° C | 29% | 1016.6 hPa | 0 mm | 0 m/s | - | - |
| 1788130338 | 23.33° C | 39% | 1016.7 hPa | 0 mm | 0 m/s | - | - |
| 1788129138 | 23.33° C | 45% | 1016.6 hPa | 0 mm | 0 m/s | - | - |
| 1788129073 | 23.33° C | 45% | 1016.7 hPa | 0 mm | 0 m/s | - | - |
| 1788127938 | 23.33° C | 47% | 1016.9 hPa | 0 mm | 0 m/s | - | - |
| 1788126738 | 23.33° C | 50% | 1016.9 hPa | 0 mm | 0 m/s | - | - |
| 1788125538 | 23.89° C | 52% | 1016.8 hPa | 0 mm | 0 m/s | - | - |
| 1788125473 | 23.89° C | 52% | 1016.8 hPa | 0 mm | 0 m/s | - | - |
| 1788124338 | 23.89° C | 53% | 1016.9 hPa | 0 mm | 0 m/s | - | - |
| 1788123138 | 24.44° C | 54% | 1016.9 hPa | 0 mm | 0 m/s | - | - |
| 1788121873 | 25° C | 54% | 1017 hPa | 0 mm | 0 m/s | - | - |
| 1788120738 | 25° C | 55% | 1016.9 hPa | 0 mm | 2.24 m/s, 220° | - | - |
| 1788119538 | 25.56° C | 54% | 1017.3 hPa | 0 mm | 0 m/s | - | - |
| 1788118340 | 26.11° C | 52% | 1017.4 hPa | 0 mm | 0 m/s | - | - |
| 1788118273 | 26.11° C | 52% | 1017.4 hPa | 0 mm | 4.02 m/s, 229° | - | - |
| 1788117138 | 26.67° C | 50% | 1017.7 hPa | 0 mm | 0 m/s | - | - |
| 1788114673 | 27.22° C | 48% | 1018.2 hPa | 0 mm | 0 m/s | - | - |
| 1788113538 | 27.22° C | 48% | 1018.2 hPa | 0 mm | 0 m/s | - | - |
| 1788112339 | 26.67° C | 47% | 1018.5 hPa | 0 mm | 0 m/s | - | - |
* Rain latest hour (hover to see other rain measurements)
** Current wind speed in m/s (hover to see current wind gust speed)